FW2899 Weather Reports


time (UTC)temp
C
wind
direction
speed
KPH
gust
KPH
rain 1hr
cm
rain 24hr
cm
rain mn
cm
humidity
%
barometer
mb
20260906134517 20 0.0 3.2 0.00 0.00 0.00 93 1019.4
20260906133517 19 0.0 1.6 0.00 0.00 0.00 93 1019.4
20260906132516 19 90 1.6 6.4 0.00 0.00 0.00 93 1019.3
20260906131517 19 68 1.6 4.8 0.00 0.00 0.00 93 1019.1
20260906130516 19 0.0 3.2 0.00 0.00 0.00 93 1019.2
20260906125516 19 0.0 1.6 0.00 0.00 0.00 93 1019.1
20260906124557 19 0.0 0.0 0.00 0.00 0.00 93 1019.1
20260906123517 19 0.0 0.0 0.00 0.00 0.00 93 1019.0
20260906122517 19 0.0 0.0 0.00 0.00 0.00 93 1018.9
20260906121516 19 0.0 4.8 0.00 0.00 0.00 93 1018.8
20260906120537 19 0.0 6.4 0.00 0.00 0.00 93 1018.9
20260906115517 19 0.0 0.0 0.00 0.00 0.00 93 1018.8
20260906114517 19 0.0 3.2 0.00 0.00 0.00 93 1018.7
20260906113557 19 0.0 4.8 0.00 0.00 0.00 92 1018.8
20260906112536 19 203 1.6 4.8 0.00 0.00 0.00 92 1018.7
20260906111517 19 0.0 1.6 0.00 0.00 0.00 93 1018.7
20260906110516 19 0.0 0.0 0.00 0.00 0.00 92 1018.6
20260906105516 19 0.0 0.0 0.00 0.00 0.00 92 1018.4
20260906104517 19 0.0 0.0 0.00 0.00 0.00 92 1018.2
20260906103516 19 0.0 0.0 0.00 0.00 0.00 92 1018.1
20260906102516 19 0.0 0.0 0.00 0.00 0.00 92 1017.8
20260906101517 19 0.0 0.0 0.00 0.00 0.00 92 1018.0
20260906100516 19 0.0 0.0 0.00 0.00 0.00 91 1018.0
20260906095516 20 0.0 0.0 0.00 0.00 0.00 92 1017.9
20260906094516 20 0.0 0.0 0.00 0.00 0.00 92 1017.9
20260906093516 20 0.0 4.8 0.00 0.00 0.00 92 1017.9
20260906092516 20 0.0 1.6 0.00 0.00 0.00 92 1017.5
20260906091516 20 0.0 4.8 0.00 0.00 0.00 92 1017.4
20260906090516 20 0.0 0.0 0.00 0.00 0.00 91 1017.4
20260906085516 20 0.0 0.0 0.00 0.00 0.00 91 1017.3
20260906084516 20 0.0 0.0 0.00 0.00 0.00 91 1017.5
20260906083516 20 0.0 4.8 0.00 0.00 0.00 91 1017.5
20260906082516 20 0.0 3.2 0.00 0.00 0.00 91 1017.8
20260906081516 20 0.0 0.0 0.00 0.00 0.00 91 1017.9
20260906080516 20 0.0 0.0 0.00 0.00 0.00 91 1017.8
20260906075516 20 0.0 0.0 0.00 0.00 0.00 90 1018.0
20260906074516 20 0.0 0.0 0.00 0.00 0.00 90 1017.8
20260906073516 20 0.0 6.4 0.00 0.00 0.00 90 1017.8
20260906072516 20 0.0 0.0 0.00 0.00 0.00 91 1018.0
20260906071516 20 0.0 3.2 0.00 0.00 0.00 91 1018.0
20260906070516 20 0.0 1.6 0.00 0.00 0.00 91 1018.0
20260906065516 20 0.0 1.6 0.00 0.00 0.00 91 1018.1
20260906064516 20 0.0 3.2 0.00 0.00 0.00 91 1018.0
20260906063516 20 0.0 4.8 0.00 0.00 0.00 91 1017.9
20260906062516 20 0.0 4.8 0.00 0.00 0.00 90 1018.0
20260906061516 20 0.0 1.6 0.00 0.00 0.00 90 1018.1
20260906060616 20 0.0 3.2 0.00 0.00 0.00 89 1018.1
20260906055516 20 0.0 3.2 0.00 0.00 0.00 89 1018.1
20260906054516 20 0.0 0.0 0.00 0.00 0.00 89 1018.1
20260906053516 20 0.0 0.0 0.00 0.00 0.00 89 1018.1
20260906052516 20 0.0 0.0 0.00 0.00 0.00 89 1018.2
20260906051516 21 0.0 0.0 0.00 0.00 0.00 88 1018.0
20260906050516 21 0.0 0.0 0.00 0.00 0.00 88 1018.1
20260906045516 21 0.0 3.2 0.00 0.00 0.00 88 1018.0
20260906044516 21 0.0 1.6 0.00 0.00 0.00 88 1017.8
20260906043516 21 0.0 1.6 0.00 0.00 0.00 87 1018.1
20260906042516 21 0.0 1.6 0.00 0.00 0.00 88 1018.0
20260906041536 21 0.0 3.2 0.00 0.00 0.00 88 1018.0
20260906040516 21 0.0 1.6 0.00 0.00 0.00 88 1017.9
20260906035516 21 0.0 0.0 0.00 0.00 0.00 89 1018.1
20260906034515 21 0.0 0.0 0.00 0.00 0.00 89 1018.0
20260906033515 21 0.0 1.6 0.00 0.00 0.00 89 1018.2
20260906032515 21 0.0 0.0 0.00 0.00 0.00 89 1018.0
20260906031515 21 0.0 0.0 0.00 0.00 0.00 89 1017.8
20260906030515 21 0.0 0.0 0.00 0.00 0.00 89 1017.6
20260906025516 21 0.0 0.0 0.00 0.00 0.00 89 1017.6
20260906024535 21 0.0 0.0 0.00 0.00 0.00 89 1017.5
20260906023515 22 0.0 0.0 0.00 0.00 0.00 89 1017.4
20260906022536 22 0.0 0.0 0.00 0.00 0.00 88 1017.1
20260906021516 22 0.0 0.0 0.00 0.00 0.00 88 1016.9
20260906020515 22 0.0 0.0 0.00 0.00 0.00 88 1016.7
20260906015516 22 0.0 0.0 0.00 0.00 0.00 88 1016.6
20260906014515 22 0.0 0.0 0.00 0.00 0.00 88 1016.4
20260906013515 22 0.0 0.0 0.00 0.00 0.00 88 1016.3
20260906012515 22 0.0 0.0 0.00 0.00 0.00 87 1016.1
20260906011535 22 0.0 0.0 0.00 0.00 0.00 87 1016.0
20260906010515 22 0.0 0.0 0.00 0.00 0.00 87 1016.0
20260906005516 22 0.0 0.0 0.00 0.00 0.00 86 1015.9
20260906004536 22 0.0 0.0 0.00 0.00 0.00 86 1015.7
20260906003515 23 0.0 0.0 0.00 0.00 0.00 85 1015.8
20260906002515 23 0.0 0.0 0.00 0.00 0.00 85 1015.8
20260906001516 23 0.0 0.0 0.00 0.00 0.00 84 1015.9
20260906000517 23 0.0 0.0 0.00 0.00 0.00 84 1015.9
20260905235517 23 0.0 4.8 0.00 0.00 0.00 83 1015.9
20260905234517 23 0.0 6.4 0.00 0.00 0.00 83 1015.8
20260905233517 24 0.0 1.6 0.00 0.00 0.00 83 1015.7
20260905232517 24 0.0 8.0 0.00 0.00 0.00 83 1015.8
20260905231517 24 0.0 4.8 0.00 0.00 0.00 83 1015.6
20260905230517 24 0.0 1.6 0.00 0.00 0.00 83 1015.6
20260905225517 24 45 1.6 6.4 0.00 0.00 0.00 81 1015.2
20260905224517 24 45 1.6 6.4 0.00 0.00 0.00 82 1015.2
20260905223537 24 45 1.6 9.7 0.00 0.00 0.00 81 1015.2
20260905222517 24 0.0 6.4 0.00 0.00 0.00 83 1015.2
20260905221517 24 45 1.6 8.0 0.00 0.00 0.00 82 1015.2
20260905220517 24 0.0 14.5 0.00 0.00 0.00 82 1015.2
20260905215517 24 45 3.2 8.0 0.00 0.00 0.00 82 1015.1
20260905214517 24 45 3.2 11.3 0.00 0.00 0.00 82 1015.1
20260905213557 24 0.0 6.4 0.00 0.00 0.00 82 1015.4
20260905212517 25 0.0 9.7 0.00 0.00 0.00 81 1015.5
20260905211517 25 0.0 6.4 0.00 0.00 0.00 82 1015.6
20260905210517 25 0.0 6.4 0.00 0.00 0.00 81 1015.7
20260905205517 25 0.0 1.6 0.00 0.00 0.00 80 1015.9
20260905204537 25 0.0 1.6 0.00 0.00 0.00 80 1016.0
20260905203517 25 0.0 3.2 0.00 0.00 0.00 79 1016.1
20260905202517 26 0.0 0.0 0.00 0.00 0.00 79 1016.3
20260905201517 26 0.0 0.0 0.00 0.00 0.00 78 1016.4
20260905200517 25 0.0 0.0 0.00 0.00 0.00 78 1016.6
20260905195517 25 0.0 0.0 0.00 0.00 0.00 79 1016.6
20260905194517 25 0.0 0.0 0.00 0.00 0.00 79 1016.8
20260905193517 25 0.0 0.0 0.00 0.00 0.00 80 1016.8
20260905192517 25 0.0 0.0 0.00 0.00 0.00 79 1016.9
20260905191517 25 0.0 0.0 0.00 0.00 0.00 80 1017.0
20260905190517 25 0.0 0.0 0.00 0.00 0.00 80 1017.0
20260905185517 25 0.0 4.8 0.00 0.00 0.00 81 1016.8
20260905184517 25 0.0 6.4 0.00 0.00 0.00 82 1016.8
20260905183517 24 0.0 4.8 0.00 0.00 0.00 87 1017.1
20260905182517 23 0.0 6.4 0.00 0.00 0.00 84 1017.3
20260905181517 23 0.0 0.0 0.00 0.00 0.00 85 1017.3
20260905180517 23 0.0 0.0 0.00 0.00 0.00 86 1017.5
20260905175517 23 0.0 0.0 0.00 0.00 0.00 85 1017.5
20260905174517 23 0.0 1.6 0.00 0.00 0.00 85 1017.4
20260905173517 23 0.0 1.6 0.00 0.00 0.00 86 1017.5
20260905172517 23 0.0 1.6 0.00 0.00 0.00 86 1017.9
20260905171517 23 0.0 1.6 0.00 0.00 0.00 87 1017.8
20260905170517 23 0.0 1.6 0.00 0.00 0.00 87 1017.6
20260905165517 23 0.0 1.6 0.00 0.00 0.00 88 1017.5
20260905164517 22 0.0 1.6 0.00 0.00 0.00 89 1017.4
20260905163517 22 0.0 4.8 0.00 0.00 0.00 89 1017.3
20260905162517 22 0.0 0.0 0.00 0.00 0.00 89 1017.3
20260905161517 22 0.0 0.0 0.00 0.00 0.00 90 1017.4
20260905160517 22 0.0 3.2 0.00 0.00 0.00 90 1017.5
20260905155537 22 0.0 3.2 0.00 0.00 0.00 90 1017.3
20260905154517 22 45 1.6 4.8 0.00 0.00 0.00 91 1017.2
20260905153517 22 45 3.2 6.4 0.00 0.00 0.00 92 1017.1
20260905152517 22 45 3.2 4.8 0.00 0.00 0.00 92 1017.3
20260905151537 21 45 1.6 4.8 0.00 0.00 0.00 93 1017.1
20260905150517 21 45 1.6 6.4 0.00 0.00 0.00 93 1016.9
20260905145517 21 0.0 0.0 0.00 0.00 0.00 94 1016.9
20260905144517 21 45 1.6 4.8 0.00 0.00 0.00 94 1016.9
20260905143537 21 0.0 0.0 0.00 0.00 0.00 94 1016.9
20260905142516 21 0.0 0.0 0.00 0.00 0.00 94 1016.8
20260905141517 21 0.0 0.0 0.00 0.00 0.00 94 1016.6
20260905140516 21 0.0 3.2 0.00 0.00 0.00 94 1016.7
20260905135537 21 45 1.6 3.2 0.00 0.00 0.00 94 1016.5